Date,TemperatureHighF,TemperatureAvgF,TemperatureLowF,DewpointHighF,DewpointAvgF,DewpointLowF,HumidityHigh,HumidityAvg,HumidityLow,PressureMaxIn,PressureMinIn,WindSpeedMaxMPH,WindSpeedAvgMPH,GustSpeedMaxMPH,PrecipitationSumIn
2013-1-1,36,30,16,26,17,4,75,59,44,29.91,29.67,29,5,29,0.17
2013-1-2,28,17,8,17,7,-5,82,65,55,30.08,29.86,23,3,23,0.01
2013-1-3,25,11,0,7,-2,-7,81,57,32,30.12,29.95,14,2,16,0.00
2013-1-4,37,25,9,25,18,6,94,75,57,29.96,29.77,22,3,23,0.01
2013-1-5,41,31,18,25,21,15,88,66,42,30.23,29.80,20,3,20,0.04
2013-1-6,43,30,19,29,24,16,90,81,57,30.20,29.90,17,2,17,0.02
2013-1-7,37,28,18,29,21,14,97,77,49,30.38,29.92,15,2,16,0.00
2013-1-8,45,28,17,29,23,16,97,82,49,30.34,30.23,16,2,17,0.00
2013-1-9,43,33,19,34,27,18,96,81,57,30.38,29.96,24,2,24,0.00
2013-1-10,46,40,27,30,26,23,85,58,45,30.51,29.98,30,5,30,0.00
2013-1-11,39,32,23,36,28,21,97,86,68,30.50,30.20,8,0,9,0.14
2013-1-12,41,38,36,41,37,35,99,98,97,30.20,30.09,9,0,9,0.03
2013-1-13,48,42,38,48,42,37,100,99,98,30.12,29.98,9,1,9,0.00
2013-1-14,62,50,40,52,43,27,98,77,49,30.23,29.82,10,4,23,0.00
2013-1-15,41,35,28,30,26,24,91,71,55,30.29,30.19,3,1,9,0.00
2013-1-16,32,31,29,31,29,25,97,93,75,30.22,29.79,7,0,7,0.11
2013-1-17,41,32,26,35,26,12,98,81,51,30.08,29.79,24,2,24,0.27
2013-1-18,28,20,14,14,2,-3,65,46,33,30.42,30.03,21,4,22,0.00
2013-1-19,47,35,19,31,22,8,79,60,43,30.35,29.84,12,5,29,0.07
2013-1-20,53,40,27,32,26,12,79,59,34,29.88,29.49,32,6,33,0.00
2013-1-21,27,23,18,20,10,3,91,59,44,30.06,29.76,24,3,28,0.00
2013-1-22,24,19,10,19,9,0,94,68,41,30.04,29.73,24,3,24,0.00
2013-1-23,15,9,2,2,-7,-12,70,48,31,30.11,30.03,24,4,24,0.00
2013-1-24,18,9,0,-5,-9,-13,57,43,31,30.19,30.03,25,5,25,0.00
2013-1-25,23,14,7,6,-6,-10,61,41,28,30.28,30.03,14,4,20,0.00
2013-1-26,24,16,10,10,2,-7,86,58,32,30.20,29.98,27,4,27,0.00
2013-1-27,30,19,11,4,2,-2,69,48,29,30.44,30.18,21,4,23,0.00
2013-1-28,30,22,15,24,12,0,94,67,35,30.42,30.00,11,0,11,0.00
2013-1-29,33,27,24,29,24,22,94,91,82,30.17,30.00,6,0,6,0.09
2013-1-30,60,46,32,57,45,31,100,96,88,30.13,29.41,18,3,26,0.18
2013-1-31,61,47,29,59,38,17,97,73,43,29.55,28.91,29,9,33,0.44